Regional Weather Roundup
Issued by NWS Sioux Falls, SD

Home | Current Version | Previous Version | Text Only | Print | Product List | Glossary On
Versions: 1 2 3 4 5 6 7 8 9 10 11 12 13 14 15 16 17 18 19 20 21 22 23 24 25 26 27 28 29 30 31 32 33 34 35 36 37 38 39 40 41 42 43 44 45 46 47 48 49 50
000
ASUS43 KFSD 200410
RWRFSD

WEATHER ROUNDUP FOR SE SOUTH DAKOTA/SW MINNESOTA/NW IOWA
NATIONAL WEATHER SERVICE SIOUX FALLS SD
1100 PM CDT SAT APR 19 2014

NOTE: "FAIR" INDICATES FEW OR NO CLOUDS BELOW 12,000 FEET WITH NO
SIGNIFICANT WEATHER AND OR OBSTRUCTIONS TO VISIBILITY.


SDZ038>040-050-052>070-200500-
SOUTHEAST SOUTH DAKOTA

CITY           SKY/WX    TMP DP  RH WIND       PRES   REMARKS
CHAMBERLAIN      N/A     52  25  35 E5        30.02F
HURON          MOCLDY    51  30  44 SW6       30.01S
MADISON        FAIR      48  27  43 S7        30.03R
MITCHELL         N/A     50  27  40 CALM      30.02S
SIOUX FALLS    CLOUDY    57  40  52 N3        30.02S
WINNER         FAIR      51  18  27 S8        30.02S
YANKTON        PTCLDY    57  34  41 N7        30.02S
$$

MNZ071-072-080-081-089-090-097-098-200500-
SOUTHWEST MINNESOTA

CITY           SKY/WX    TMP DP  RH WIND       PRES   REMARKS
FAIRMONT       CLOUDY    57  48  72 N6        30.03S
JACKSON        DRIZZLE   55  45  67 VRB5      30.03S
LUVERNE        CLOUDY    59  37  44 N3        30.03S
MARSHALL       PTCLDY    48  36  61 S5        30.01S
MONTEVIDEO     MOCLDY    50  39  66 SW3       30.02R
PIPESTONE      CLOUDY    55  30  38 CALM      30.02S
REDWOOD FALLS  CLOUDY    56  45  66 S5        30.01S
TRACY          CLOUDY    56  43  62 CALM      30.02S
WINDOM         CLOUDY    55  45  67 CALM      30.03R
WORTHINGTON    CLOUDY    55  43  62 NE5       30.05S
$$

IAZ001>003-012>014-020>022-031-032-NEZ013-014-SDZ071-200500-
NORTHWEST IOWA

CITY           SKY/WX    TMP DP  RH WIND       PRES   REMARKS
CHEROKEE       CLOUDY    61  48  63 CALM      30.00R
DENISON        CLOUDY    70  43  37 S18G25    30.00R
ESTHERVILLE    CLOUDY    57  49  74 N6        30.01S
LE MARS        CLOUDY    61  45  55 N3        30.00S
ORANGE CITY    CLOUDY    63  45  51 NE5       30.00F
SHELDON        CLOUDY    59  46  63 N8        30.01R
SIOUX CITY     CLOUDY    61  47  59 CALM      29.99R
SPENCER        CLOUDY    60  48  64 NE7       30.01S
STORM LAKE     CLOUDY    63  45  51 S9        30.01S
$$

ABBREVIATIONS USED IN REMARKS
   TC - TEMPERATURE IN CELSIUS
  WCI - WIND CHILL INDEX
   HX - HEAT INDEX
  VSB - VISIBILITY




USA.gov is the U.S. government's official web portal to all federal, state and local government web resources and services.